Other Public Products
Issued by NWS Grand Forks, ND

Home | Current Version | Previous Version | Graphics & Text | Print | Product List | Glossary On
Versions: 1 2 3 4 5 6 7 8 9 10 11 12 13 14 15 16 17 18 19 20 21 22 23 24 25 26 27 28 29 30 31 32 33 34 35 36 37 38 39 40 41 42 43 44 45 46 47 48 49 50
000
FPUS83 KFGF 192331
OPUFGF
PRAIRIE TO PINES WEATHER ROUNDUP
NATIONAL WEATHER SERVICE EASTERN NORTH DAKOTA/GRAND FORKS ND
600 PM CDT TUE AUG 19 2014

 **SATELLITE DATA USED TO AUGMENT SKY COVER AT AUTOMATED STATIONS**
 *****  WEATHER ACROSS EASTERN NORTH DAKOTA  *****

CITY           SKY/WX    TMP DP  RH WIND       PRES   REMARKS
GRAND FORKS    MOSUNNY   82  64  54 NE6       29.72F
GRAND FORKS AF SUNNY     80  65  59 E3        29.74S
GRAND CITY NWS   N/A     36 N/A N/A MISG        N/A
BUXTON           N/A     82  68  62 CALM        N/A
DEVILS LAKE    SUNNY     82  61  47 SW7       29.73S
FARGO          SUNNY     82  63  52 CALM      29.73F
WAHPETON ARPT  CLEAR     79  59  50 W5        29.76R
$$

 *****  WEATHER ACROSS CENTRAL AND WESTERN NORTH DAKOTA  *****

CITY           SKY/WX    TMP DP  RH WIND       PRES   REMARKS
JAMESTOWN      PTSUNNY   81  62  52 S5        29.75S
BISMARCK       SUNNY     87  61  41 SE8       29.73F
MINOT          SUNNY     85  55  35 SE5       29.71F
MINOT AFB      SUNNY     85  57  38 SE8       29.71S
GARRISON         N/A     83  60  45 E6        29.73F
WILLISTON      SUNNY     91  54  28 SE12      29.66F
DICKINSON      SUNNY     86  59  39 SE12      29.71F
HETTINGER      PTSUNNY   84  56  38 SE6       29.75S
$$

 *****  OTHER OBSERVATIONS NORTHEAST NORTH DAKOTA  *****

CITY           SKY/WX    TMP DP  RH WIND       PRES   REMARKS
WALHALLA       FAIR      81  66  61 SE7         N/A
LANGDON        MOCLDY    82  61  47 SE3       29.75S
CAVALIER       FAIR      81  64  57 E7        29.73S
GRAFTON        FAIR      79  64  61 E6        29.73S
CANDO          FAIR      79  64  61 SE7       29.74S
FORT TOTTEN    NOT AVBL
ROLLA            N/A     79  57  47 S6        29.76S
RUGBY          NOT AVBL
 ***** THE ABOVE OBSERVATIONS ARE NON NWS ARE NOT QUALITY
        CONTROLLED AND MAY MIS-REPORT RAIN FOR SNOW...
$$

 *****  OTHER OBSERVATIONS SOUTHEAST NORTH DAKOTA *****

CITY           SKY/WX    TMP DP  RH WIND       PRES   REMARKS
COOPERSTOWN    NOT AVBL
VALLEY CITY    CLOUDY    81  63  54 CALM      29.75F
OAKES          NOT AVBL
GWINNER        CLEAR     81  64  57 SW6       29.77S
SHEYENNE NWR     N/A     81  66  61 SE5       29.95S
BUFFALO          N/A     80  58  46 SE6         N/A
WYNDMERE       NOT AVBL
 ***** THE ABOVE OBSERVATIONS ARE NON NWS ARE NOT QUALITY
       CONTROLLED AND MAY MIS-REPORT RAIN FOR SNOW...
$$

  *****  WEATHER ACROSS NORTHERN MINNESOTA  *****

CITY           SKY/WX    TMP DP  RH WIND       PRES   REMARKS
FLAG ISLAND    SUNNY     72  63  73 S3        29.76S
WARROAD        SUNNY     72  64  78 E6        29.77S
ROSEAU         SUNNY     75  64  69 E9        29.76S
HALLOCK        SUNNY     81  59  47 CALM      29.73S
THF RVR FALLS  SUNNY     77  61  57 N5        29.76R
HALSTAD          N/A     84  59  42 CALM        N/A
FOSSTON        SUNNY     81  63  54 CALM      29.77S
BAUDETTE       MOSUNNY   72  62  71 E7        29.77S
WASKISH        MOSUNNY   72  63  73 CALM      29.78R
CROOKSTON      SUNNY     79  63  57 NE5       29.75R
$$
  *****  WEATHER ACROSS CENTRAL AND WEST MINNESOTA  *****

CITY           SKY/WX    TMP DP  RH WIND       PRES   REMARKS
BEMIDJI        SUNNY     74  60  59 N5        29.77S
PARK RAPIDS    SUNNY     76  59  55 N8        29.77R
WADENA         SUNNY     75  63  64 NW3       29.76S
DETROIT LAKES  MOSUNNY   77  61  57 NW3       29.78S
MOORHEAD       SUNNY     81  64  57 NE3       29.75S
FERGUS FALLS   SUNNY     79  59  50 N5        29.75S
ELBOW LAKE     FAIR      78  63  60 N7        29.76S
MORRIS MN      SUNNY     82  63  51 NW6       29.76S
STAPLES        MOSUNNY   75  61  60 N6        29.76S
WHEATON        SUNNY     79  64  61 NW3       29.77S
$$
  *****  WEATHER ELSEWHERE ACROSS MINNESOTA  *****

CITY           SKY/WX    TMP DP  RH WIND       PRES   REMARKS
DULUTH         PTSUNNY   70  60  70 N9        29.75R
INTRNTL FALLS  PTSUNNY   71  60  68 E8        29.78R
ELY            CLOUDY    64  59  82 CALM      29.78S
CLOQUET        PTSUNNY   72  61  68 N6        29.76R
BRAINERD       MOSUNNY   73  63  70 N5        29.76R
HIBBING        CLOUDY    71  60  68 NE5       29.77R
ALEXANDRIA     SUNNY     78  61  55 NW7       29.78S
SAINT CLOUD    MOSUNNY   83  62  49 NW7       29.73F
MINNEAPOLIS    MOSUNNY   79  62  56 NW7       29.74S
$$

  *****  WEATHER ACROSS SOUTH DAKOTA  *****

CITY           SKY/WX    TMP DP  RH WIND       PRES   REMARKS
SIOUX FALLS    MOSUNNY   84  60  44 N5        29.79F
BROOKINGS      NOT AVBL
WATERTOWN      MOSUNNY   80  60  50 CALM      29.79S
HURON          SUNNY     86  59  39 NE6       29.75S
SISSETON         N/A     82  65  56 NE5       29.75S
ABERDEEN       SUNNY     82  63  52 SE7       29.75S
MITCHELL       SUNNY     84  62  47 E8        29.76F
PIERRE         SUNNY     90  58  33 SE12      29.72S
MOBRIDGE       SUNNY     85  61  44 E12       29.72F
RAPID CITY     PTSUNNY   83  63  50 N3        29.76F
$$

  *****  SOME WEATHER IN NEARBY STATES *****

CITY           SKY/WX    TMP DP  RH WIND       PRES   REMARKS
GLASGOW MT     SUNNY     93  42  17 W9        29.60F
GREAT FALLS MT MOSUNNY   87  39  18 SW10      29.70F
CHEYENNE WY    CLOUDY    72  44  36 N17       29.97F
SCOTTSBLUFF NE PTSUNNY   83  49  30 S17G25    29.83R THUNDER
OMAHA NE       MOSUNNY   87  61  41 E9        29.79S
DES MOINES IA  MOSUNNY   85  63  47 CALM      29.78S
DAVENPORT IA   MOSUNNY   82  63  52 W12       29.76S
CHICAGO IL     MOSUNNY   84  62  47 W12       29.71R
EAU CLAIRE WI  PTSUNNY   72  67  84 CALM      29.74R
LA CROSSE WI   MOSUNNY   80  62  54 NW10      29.73S
$$

  *****  SOME NATIONAL WEATHER *****

CITY           SKY/WX    TMP DP  RH WIND       PRES   REMARKS
LA GUARDIA NY  PTCLDY    76  62  62 S10       29.88S
RALEIGH NC     PTSUNNY   81  71  71 CALM      29.84R
ATLANTA GA     PTSUNNY   84  70  62 W5        29.92R
NEW ORLEANS LA CLOUDY    85  74  69 SW5       29.96S HX  92
OKLAHOMA CITY  PTSUNNY   93  66  40 SE15G22   29.82S HX  96
ALBUQUERQUE NM PTSUNNY   86  43  22 SW15      29.95F
SALT LAKE CITY CLOUDY    72  55  55 SE10      29.90F
LOS ANGELES CA PTSUNNY   72  63  73 W14       29.85F
BOISE ID       SUNNY     93  40  15 NW8       29.68F
SEATTLE WA     MOSUNNY   80  59  48 SW6       29.81F
$$

*** WEATHER ACROSS MANITOBA...SASKATCHEWAN AND ONTARIO ***
                ***ONTARIO***

CITY           SKY/WX    TMP DP  RH WIND       PRES   REMARKS
GERALDTON      PTSUNNY   66  59  77 SE6       29.79R
THUNDER BAY    DRIZZLE   59  59 100 E3        29.78S FOG
SIOUX LOOKOUT  MOSUNNY   73  57  56 S6        29.78R
TORONTO        PTSUNNY   68  57  68 SE6       29.86S
BIG TROUT LK   SUNNY     77  50  38 SE5       29.78R
PICKLE LAKE    MOSUNNY   75  52  43 SE9       29.79R
DRYDEN         SUNNY     70  61  73 W3        29.79S
KENORA         PTSUNNY   72  63  73 W3        29.80R
$$
                *** MANITOBA***

CITY           SKY/WX    TMP DP  RH WIND       PRES   REMARKS
BRANDON        PTSUNNY   79  64  61 E7        29.73
DAUPHIN        SUNNY     81  66  61 SE8       29.70R
ISLAND LAKE    MOSUNNY   82  59  44 SW3       29.71S
PILOT MOUND      N/A     79  63  57 SW5         N/A
THE PAS        PTSUNNY   81  61  50 S5        29.62S SMOKE
THOMPSON       TSTM     N/A N/A N/A S6G18       N/A
WINNIPEG       PTSUNNY   79  61  53 S5        29.74S
LYNN LAKE      CLOUDY    61  55  82 MISG      29.67R
CHURCHILL      CLOUDY    46  43  87 E24G37    29.78F
GILLAM         MOSUNNY   68  59  73 SE8       29.69R
$$
                ***SASKATCHEWAN***

CITY           SKY/WX    TMP DP  RH WIND       PRES   REMARKS
ESTEVAN        PTSUNNY   84  59  42 SE12      29.69F
KINDERSLEY     MOSUNNY   77  59  53 N14G20    29.64F
LLOYDMINSTER   PTSUNNY   70  59  68 NW8       29.67S
PRINCE ALBERT  CLOUDY    64  59  82 NE9G18    29.63F
REGINA         MOSUNNY   82  63  51 SE15      29.63F



USA.gov is the U.S. government's official web portal to all federal, state and local government web resources and services.